TimeCST,TemperatureF,Dew PointF,Humidity,Sea Level PressureIn,VisibilityMPH,Wind Direction,Wind SpeedMPH,Gust SpeedMPH,PrecipitationIn,Events,Conditions,WindDirDegrees,DateUTC
12:53 AM,64.9,57.9,78,30.06,10.0,SE,10.4,-,N/A,,Mostly Cloudy,140,2012-11-11 06:53:00
1:53 AM,66.0,57.9,75,30.04,10.0,SE,11.5,-,N/A,,Overcast,140,2012-11-11 07:53:00
2:53 AM,64.9,57.9,78,30.02,10.0,SE,15.0,-,N/A,,Partly Cloudy,140,2012-11-11 08:53:00
3:53 AM,64.0,57.9,80,30.03,10.0,SE,10.4,-,N/A,,Partly Cloudy,140,2012-11-11 09:53:00
4:53 AM,63.0,57.0,81,30.03,10.0,SE,10.4,-,N/A,,Clear,130,2012-11-11 10:53:00
5:53 AM,63.0,57.0,81,30.04,10.0,ESE,8.1,-,N/A,,Mostly Cloudy,110,2012-11-11 11:53:00
6:53 AM,64.0,57.9,80,30.05,10.0,ESE,9.2,-,N/A,,Mostly Cloudy,120,2012-11-11 12:53:00
7:53 AM,66.0,59.0,78,30.06,10.0,SE,12.7,-,N/A,,Overcast,140,2012-11-11 13:53:00
8:53 AM,68.0,60.1,76,30.08,10.0,SE,11.5,19.6,N/A,,Mostly Cloudy,130,2012-11-11 14:53:00
10:53 AM,75.0,62.1,64,30.05,10.0,SSE,15.0,23.0,0.00,,Overcast,150,2012-11-11 16:53:00
11:53 AM,75.0,61.0,62,30.04,10.0,SSE,15.0,26.5,N/A,,Overcast,160,2012-11-11 17:53:00
12:53 PM,72.0,63.0,73,30.01,6.0,SSE,18.4,26.5,0.00,Rain,Light Rain,150,2012-11-11 18:53:00
1:53 PM,72.0,63.0,73,30.00,8.0,South,8.1,-,0.00,,Overcast,170,2012-11-11 19:53:00
2:53 PM,71.1,64.0,78,29.99,9.0,South,8.1,20.7,0.00,,Overcast,170,2012-11-11 20:53:00
3:53 PM,69.1,66.0,90,30.01,2.0,SSW,6.9,-,0.02,Rain,Heavy Rain,200,2012-11-11 21:53:00
4:00 PM,68.0,66.2,94,30.00,2.0,SSW,6.9,-,0.01,Rain,Light Rain,200,2012-11-11 22:00:00
4:25 PM,68.0,66.2,94,30.00,2.0,South,5.8,-,0.06,Rain,Heavy Rain,170,2012-11-11 22:25:00
4:53 PM,68.0,66.0,93,30.01,2.5,South,4.6,-,0.09,Rain,Light Rain,170,2012-11-11 22:53:00
4:58 PM,68.0,66.2,94,29.99,3.0,SSE,3.5,-,0.01,Rain,Light Rain,160,2012-11-11 22:58:00
5:24 PM,68.0,66.2,94,30.01,8.0,South,4.6,-,0.01,,Overcast,170,2012-11-11 23:24:00
5:38 PM,68.0,66.2,94,30.01,4.0,Calm,Calm,-,0.01,Rain,Light Rain,0,2012-11-11 23:38:00
5:53 PM,68.0,66.9,96,30.02,5.0,ESE,3.5,-,0.02,Rain,Light Rain,120,2012-11-11 23:53:00
6:00 PM,68.0,66.2,94,30.01,3.0,SE,4.6,-,0.01,Rain,Rain,130,2012-11-12 00:00:00
6:09 PM,68.0,66.2,94,30.02,3.0,SE,4.6,-,0.02,Rain,Rain,130,2012-11-12 00:09:00
6:28 PM,68.0,66.2,94,30.02,2.5,South,6.9,-,0.07,Rain,Heavy Rain,170,2012-11-12 00:28:00
6:31 PM,68.0,66.2,94,30.03,3.0,SSE,9.2,-,0.07,Rain,Rain,160,2012-11-12 00:31:00
6:38 PM,68.0,66.2,94,30.02,6.0,SSE,11.5,18.4,0.07,Rain,Light Rain,150,2012-11-12 00:38:00
6:45 PM,68.0,66.2,94,30.02,8.0,SSE,10.4,18.4,0.08,Rain,Light Rain,160,2012-11-12 00:45:00
6:53 PM,68.0,66.0,93,30.04,10.0,SSE,11.5,-,0.08,,Overcast,160,2012-11-12 00:53:00
7:53 PM,68.0,66.9,96,30.05,3.0,SE,10.4,-,0.03,Rain,Rain,140,2012-11-12 01:53:00
8:29 PM,68.0,66.2,94,30.05,2.5,ESE,11.5,-,0.10,Rain,Rain,120,2012-11-12 02:29:00
8:38 PM,68.0,66.2,94,30.04,5.0,ESE,11.5,-,0.10,Rain,Light Rain,120,2012-11-12 02:38:00
8:53 PM,68.0,66.0,93,30.04,10.0,ESE,10.4,-,0.10,,Overcast,120,2012-11-12 02:53:00
9:53 PM,68.0,66.0,93,30.05,10.0,South,5.8,-,0.00,,Overcast,170,2012-11-12 03:53:00
10:17 PM,68.0,66.2,94,30.05,10.0,South,6.9,-,N/A,,Mostly Cloudy,170,2012-11-12 04:17:00
10:36 PM,68.0,66.2,94,30.05,10.0,South,6.9,-,N/A,,Mostly Cloudy,180,2012-11-12 04:36:00
10:48 PM,68.0,66.2,94,30.04,10.0,South,9.2,-,N/A,,Overcast,190,2012-11-12 04:48:00
10:53 PM,68.0,66.9,96,30.06,10.0,SSW,8.1,-,N/A,,Overcast,200,2012-11-12 04:53:00
11:31 PM,60.8,57.2,88,30.08,7.0,NW,20.7,26.5,0.00,Rain,Light Rain,320,2012-11-12 05:31:00
11:44 PM,59.0,57.2,94,30.09,5.0,NNW,12.7,23.0,0.01,Rain,Rain,340,2012-11-12 05:44:00